Location: Fort Worth, Tx
(32.7431°N, 97.3695°W)
Time: 18:43:51
(UTC-04:00)

A-11 Canister half - Visible Passes

Search period start: 14 March 2026 00:00
Search period end: 24 March 2026 00:00
Orbit: 1524 x 1683 km, 47.3° (Epoch: 14 March)

Date Brightness Start Highest point End Pass type
(mag) Time Alt. Az. Time Alt. Az. Time Alt. Az.
20 Mar 10.9 08:00:53 10° S 08:09:10 30° SE 08:17:17 10° ENE visible
21 Mar 10.9 07:39:18 10° S 07:47:21 28° SE 07:55:16 10° ENE visible
22 Mar 10.9 07:17:45 10° S 07:25:32 26° SE 07:33:13 10° ENE visible
23 Mar 10.9 06:56:13 10° S 07:03:44 24° SE 07:11:08 10° ENE visible
